| time (UTC) | temp F | wind direction | speed MPH | gust MPH | rain 1hr in | rain 24hr in | rain mn in | humidity % | barometer mb |
| 20260505003110 | 57 | 8 | 16.0 | 23.0 | 0.00 | 0.00 | 0.00 | 39 | 1008.5 |
| 20260505001509 | 58 | 352 | 14.0 | 21.0 | 0.00 | 0.00 | 0.00 | 39 | 1008.4 |
| 20260505000025 | 58 | 339 | 14.0 | 21.0 | 0.00 | 0.00 | 0.00 | 38 | 1008.0 |
| 20260504234509 | 60 | 342 | 14.0 | 22.0 | 0.00 | 0.00 | 0.00 | 37 | 1008.0 |
| 20260504233108 | 61 | 350 | 12.0 | 21.0 | 0.00 | 0.00 | 0.00 | 37 | 1007.9 |
| 20260504231522 | 61 | 353 | 12.0 | 19.0 | 0.00 | 0.00 | 0.00 | 38 | 1007.8 |
| 20260504230010 | 61 | 347 | 12.0 | 21.0 | 0.00 | 0.00 | 0.00 | 37 | 1007.7 |
| 20260504224508 | 60 | 327 | 15.0 | 19.0 | 0.00 | 0.00 | 0.00 | 37 | 1007.6 |
| 20260504223108 | 59 | 357 | 14.0 | 21.0 | 0.00 | 0.00 | 0.00 | 38 | 1007.7 |
| 20260504221508 | 59 | 330 | 14.0 | 22.0 | 0.00 | 0.00 | 0.00 | 38 | 1007.7 |
| 20260504220016 | 59 | 346 | 14.0 | 23.0 | 0.00 | 0.00 | 0.00 | 39 | 1007.6 |
| 20260504214509 | 59 | 354 | 17.0 | 21.0 | 0.00 | 0.00 | 0.00 | 39 | 1007.7 |
| 20260504213108 | 61 | 25 | 14.0 | 22.0 | 0.00 | 0.00 | 0.00 | 38 | 1007.8 |
| 20260504211508 | 61 | 350 | 11.0 | 18.0 | 0.00 | 0.00 | 0.00 | 36 | 1007.8 |
| 20260504210006 | 61 | 296 | 8.0 | 16.0 | 0.00 | 0.00 | 0.00 | 36 | 1007.7 |
| 20260504204505 | 61 | 318 | 8.0 | 17.0 | 0.00 | 0.00 | 0.00 | 37 | 1007.9 |
| 20260504203105 | 61 | 346 | 10.0 | 21.0 | 0.00 | 0.00 | 0.00 | 38 | 1008.2 |
| 20260504201502 | 59 | 31 | 10.0 | 17.0 | 0.00 | 0.00 | 0.00 | 39 | 1008.2 |
| 20260504200002 | 59 | 350 | 11.0 | 19.0 | 0.00 | 0.00 | 0.00 | 40 | 1008.2 |
| 20260504194501 | 60 | 323 | 11.0 | 22.0 | 0.00 | 0.00 | 0.00 | 39 | 1008.3 |
| 20260504193103 | 59 | 25 | 11.0 | 20.0 | 0.00 | 0.00 | 0.00 | 39 | 1008.6 |
| 20260504191558 | 59 | 10 | 6.0 | 17.0 | 0.00 | 0.00 | 0.00 | 39 | 1008.5 |
| 20260504190128 | 59 | 316 | 4.0 | 14.0 | 0.00 | 0.00 | 0.00 | 40 | 1008.7 |
| 20260504184558 | 58 | 349 | 6.0 | 13.0 | 0.00 | 0.00 | 0.00 | 41 | 1008.8 |
| 20260504183056 | 58 | 345 | 7.0 | 16.0 | 0.00 | 0.00 | 0.00 | 41 | 1009.1 |
| 20260504181604 | 58 | 357 | 9.0 | 15.0 | 0.00 | 0.00 | 0.00 | 41 | 1009.3 |
| 20260504180150 | 57 | 337 | 7.0 | 15.0 | 0.00 | 0.00 | 0.00 | 42 | 1009.4 |
| 20260504174555 | 55 | 336 | 7.0 | 14.0 | 0.00 | 0.00 | 0.00 | 44 | 1009.4 |
| 20260504173111 | 55 | 2 | 8.0 | 19.0 | 0.00 | 0.00 | 0.00 | 43 | 1009.4 |
| 20260504171549 | 55 | 2 | 9.0 | 16.0 | 0.00 | 0.00 | 0.00 | 43 | 1009.3 |
| 20260504081547 | 51 | 163 | 2.0 | 2.0 | 0.00 | 0.00 | 0.00 | 49 | 1005.2 |
| 20260504044532 | 53 | 353 | 0.0 | 2.0 | 0.00 | 0.00 | 0.00 | 42 | 1005.5 |
| 20260504043032 | 55 | 130 | 0.0 | 1.0 | 0.00 | 0.00 | 0.00 | 42 | 1005.5 |
| 20260504041534 | 55 | 132 | 0.0 | 2.0 | 0.00 | 0.00 | 0.00 | 42 | 1005.6 |
| 20260504040032 | 56 | 131 | 0.0 | 0.0 | 0.00 | 0.00 | 0.00 | 41 | 1005.5 |
| 20260504034540 | 56 | 131 | 0.0 | 0.0 | 0.00 | 0.00 | 0.00 | 40 | 1005.4 |
| 20260504033031 | 60 | 131 | 1.0 | 4.0 | 0.00 | 0.00 | 0.00 | 37 | 1005.2 |
| 20260504031533 | 61 | 144 | 3.0 | 4.0 | 0.00 | 0.00 | 0.00 | 36 | 1005.1 |
| 20260504030038 | 62 | 123 | 3.0 | 4.0 | 0.00 | 0.00 | 0.00 | 34 | 1005.0 |
| 20260504024530 | 62 | 145 | 3.0 | 4.0 | 0.00 | 0.00 | 0.00 | 34 | 1004.9 |
| 20260504023030 | 65 | 144 | 2.0 | 3.0 | 0.00 | 0.00 | 0.00 | 32 | 1004.8 |
| 20260504021528 | 67 | 126 | 1.0 | 3.0 | 0.00 | 0.00 | 0.00 | 30 | 1004.7 |
| 20260504020030 | 68 | 130 | 0.0 | 2.0 | 0.00 | 0.00 | 0.00 | 28 | 1004.8 |
| 20260504014528 | 71 | 132 | 0.0 | 1.0 | 0.00 | 0.00 | 0.00 | 26 | 1004.9 |
| 20260504013027 | 71 | 99 | 0.0 | 5.0 | 0.00 | 0.00 | 0.00 | 27 | 1005.0 |
| 20260504011524 | 71 | 54 | 3.0 | 4.0 | 0.00 | 0.00 | 0.00 | 26 | 1005.1 |
| 20260504010024 | 73 | 86 | 0.0 | 1.0 | 0.00 | 0.00 | 0.00 | 25 | 1005.3 |
| 20260504004523 | 72 | 53 | 2.0 | 9.0 | 0.00 | 0.00 | 0.00 | 25 | 1005.4 |